This is the latest recevied weather packets stored in our database for station/object KD4PMP. If no packets are shown the sender has not sent any weather packets the latest 10 day(s).
| Time | Temp. | Humidity | Pressure | Rain* | Wind** | Luminosity | Snow |
|---|---|---|---|---|---|---|---|
| 1788187194 | 30.56° C | 72% | 1018.7 hPa | 0 mm | - | - | - |
| 1788186587 | 30° C | 74% | 1018.8 hPa | 0 mm | - | - | - |
| 1788185981 | 29.44° C | 76% | 1018.8 hPa | 0 mm | - | - | - |
| 1788185375 | 28.89° C | 77% | 1018.8 hPa | 0 mm | - | - | - |
| 1788184768 | 28.33° C | 79% | 1018.7 hPa | 0 mm | - | - | - |
| 1788184162 | 27.78° C | 79% | 1018.7 hPa | 0 mm | - | - | - |
| 1788183556 | 27.22° C | 81% | 1018.7 hPa | 0 mm | - | - | - |
| 1788182949 | 26.67° C | 83% | 1018.6 hPa | 0 mm | - | - | - |
| 1788182343 | 26.11° C | 84% | 1018.7 hPa | 0 mm | - | - | - |
| 1788181736 | 25.56° C | 85% | 1018.6 hPa | 0 mm | - | - | - |
| 1788181130 | 25° C | 88% | 1018.6 hPa | 0 mm | - | - | - |
| 1788180523 | 24.44° C | 91% | 1018.5 hPa | 0 mm | - | - | - |
| 1788179917 | 23.33° C | 92% | 1018.4 hPa | 0 mm | - | - | - |
| 1788179311 | 22.78° C | 94% | 1018.3 hPa | 0 mm | - | - | - |
| 1788178704 | 22.78° C | 94% | 1018.1 hPa | 0 mm | - | - | - |
| 1788178098 | 22.78° C | 94% | 1018.2 hPa | 0 mm | - | - | - |
| 1788177491 | 22.22° C | 94% | 1018.4 hPa | 0 mm | - | - | - |
| 1788176885 | 22.22° C | 94% | 1018.3 hPa | 0 mm | - | - | - |
| 1788176278 | 22.22° C | 94% | 1018.2 hPa | 0 mm | - | - | - |
| 1788175672 | 22.78° C | 94% | 1018.2 hPa | 0 mm | - | - | - |
| 1788175066 | 22.78° C | 94% | 1018 hPa | 0 mm | - | - | - |
| 1788174460 | 22.78° C | 94% | 1017.9 hPa | 0 mm | - | - | - |
| 1788173854 | 22.78° C | 94% | 1017.8 hPa | 0 mm | - | - | - |
| 1788173247 | 22.78° C | 94% | 1017.8 hPa | 0 mm | - | - | - |
| 1788172641 | 22.78° C | 93% | 1017.6 hPa | 0 mm | - | - | - |
* Rain latest hour (hover to see other rain measurements)
** Current wind speed in m/s (hover to see current wind gust speed)